Date,TemperatureHighF,TemperatureAvgF,TemperatureLowF,DewpointHighF,DewpointAvgF,DewpointLowF,HumidityHigh,HumidityAvg,HumidityLow,PressureMaxIn,PressureMinIn,WindSpeedMaxMPH,WindSpeedAvgMPH,GustSpeedMaxMPH,PrecipitationSumIn
2013-1-1,26.4,13.9,2.7,25.9,9.4,-1.7,98,82,65,29.74,29.52,9,3,19,0.00
2013-1-2,13.6,2.5,-13.0,8.4,-2.3,-17.7,88,80,68,30.00,29.67,11,2,21,0.00
2013-1-3,10.0,-2.2,-13.4,-0.3,-8.6,-17.9,83,74,55,30.00,29.73,5,1,11,0.00
2013-1-4,31.1,21.4,3.2,25.2,18.1,-2.5,95,87,68,29.74,29.58,10,2,17,0.00
2013-1-5,27.1,19.2,7.5,24.3,13.6,3.7,90,79,63,30.08,29.63,14,3,28,0.00
2013-1-6,28.9,22.6,12.6,28.7,19.9,8.2,99,89,80,30.04,29.75,6,1,10,0.00
2013-1-7,29.5,17.9,10.6,29.0,13.9,6.3,98,84,67,30.19,29.80,6,2,13,0.00
2013-1-8,35.6,22.2,13.8,24.4,16.9,9.9,94,81,58,30.22,30.02,7,2,14,0.00
2013-1-9,36.7,27.9,18.3,29.8,22.8,16.7,96,82,66,30.23,29.79,10,3,19,0.00
2013-1-10,38.7,31.6,23.7,30.4,24.9,19.3,96,76,61,30.40,29.84,14,4,27,0.00
2013-1-11,36.5,24.1,16.5,22.7,18.7,14.4,94,81,58,30.40,30.11,8,2,15,0.00
2013-1-12,71.1,56.4,42.6,70.8,56.1,42.4,99,99,99,29.94,29.70,1,0,2,0.00
2013-1-13,70.2,41.8,32.0,69.9,41.4,30.9,99,99,95,29.96,29.75,10,2,14,0.00
2013-1-14,49.6,38.7,28.9,48.3,34.1,22.3,99,84,46,30.07,29.66,9,2,17,0.01
2013-1-15,30.2,25.8,20.1,23.8,18.9,15.0,84,75,60,30.11,30.01,6,1,11,0.00
2013-1-16,29.3,24.4,21.9,26.0,22.4,17.8,99,92,81,30.02,29.57,5,1,10,0.00
2013-1-17,28.8,16.3,0.7,27.0,9.9,-8.0,99,76,46,29.90,29.57,11,2,21,0.00
2013-1-18,14.9,2.3,-11.9,-1.7,-9.9,-20.1,68,56,37,30.07,29.86,10,2,18,0.00
2013-1-19,32.4,21.1,7.2,25.3,16.6,-1.7,92,83,66,30.00,29.58,8,2,13,0.00
2013-1-20,39.6,27.2,8.6,31.9,19.7,4.7,90,73,52,29.68,29.27,14,4,31,0.01
2013-1-21,21.0,7.3,-8.3,5.8,-0.2,-12.2,85,72,39,29.78,29.55,5,1,11,0.00
2013-1-22,17.4,4.4,-6.7,7.8,-2.8,-17.3,85,72,51,29.76,29.53,8,2,18,0.00
2013-1-23,1.6,-10.1,-17.9,-12.7,-19.7,-27.2,76,62,39,29.84,29.74,8,2,14,0.00
2013-1-24,8.4,-7.5,-20.9,-10.8,-18.4,-27.7,74,60,33,30.01,29.78,12,3,23,0.01
2013-1-25,12.6,0.1,-11.4,-3.4,-9.1,-16.2,80,65,43,30.03,29.81,7,2,13,0.00
2013-1-26,16.0,4.2,-3.3,1.7,-4.5,-10.4,85,68,38,29.97,29.79,9,2,17,0.00
2013-1-27,19.0,5.4,-2.6,1.6,-5.8,-13.3,85,62,32,30.22,29.96,9,2,17,0.00
2013-1-28,16.9,9.4,-1.3,14.5,2.4,-10.0,93,74,35,30.19,29.79,7,2,11,0.00
2013-1-29,30.6,21.0,8.1,28.7,18.4,5.8,99,90,75,29.96,29.81,8,2,16,0.00
2013-1-30,51.3,39.0,28.9,49.0,38.7,28.7,99,99,99,29.84,29.21,10,3,17,0.14
2013-1-31,46.4,45.4,0.0,46.1,46.1,46.1,99,97,99,29.27,28.72,4,4,10,0.14
2013-2-1,0.0,0.0,0.0,46.1,46.1,46.1,0,0,100,29.82,29.26,0,0,0,0.14
2013-2-2,70.2,29.3,0.0,69.9,54.6,42.4,99,45,99,30.09,29.80,1,0,2,0.14
2013-2-3,67.5,67.5,67.5,67.2,67.2,67.2,99,99,99,29.92,29.63,0,0,1,0.00
2013-2-4,67.5,67.5,67.5,67.2,67.2,67.2,99,99,99,29.78,29.61,0,0,1,0.00
2013-2-5,67.5,67.5,67.5,67.2,67.2,67.2,99,99,99,29.90,29.77,0,0,1,0.00
2013-2-6,67.5,67.5,67.5,67.2,67.2,67.2,99,99,99,30.20,29.78,0,0,1,0.00
2013-2-7,67.5,67.5,67.5,67.2,67.2,67.2,99,99,99,30.40,30.19,0,0,1,0.00
2013-2-8,67.5,67.5,67.5,67.2,67.2,67.2,99,99,99,30.32,29.82,0,0,1,0.00
2013-2-9,67.5,67.5,67.5,67.2,67.2,67.2,99,99,99,30.18,29.80,0,0,1,0.00
2013-2-10,67.5,67.5,67.5,67.2,67.2,67.2,99,99,99,30.32,30.18,0,0,1,0.00
2013-2-11,67.5,67.5,67.5,67.2,67.2,67.2,99,99,99,30.20,29.55,0,0,1,0.00
2013-2-12,67.5,67.5,67.5,67.2,67.2,67.2,99,99,99,29.77,29.54,0,0,1,0.00
2013-2-13,67.5,67.5,67.5,67.2,67.2,67.2,99,99,99,29.77,29.69,0,0,1,0.00
2013-2-14,67.5,67.5,67.5,67.2,67.2,67.2,99,99,99,29.90,29.67,0,0,1,0.00
2013-2-15,67.5,67.5,67.5,67.2,67.2,67.2,99,99,99,29.90,29.81,0,0,1,0.00
2013-2-16,67.5,67.5,67.5,67.2,67.2,67.2,99,99,99,29.91,29.78,0,0,1,0.00
2013-2-17,67.5,67.5,67.5,67.2,67.2,67.2,99,99,99,29.78,29.50,0,0,1,0.00
2013-2-18,67.5,67.5,67.5,67.2,67.2,67.2,99,99,99,30.03,29.65,0,0,1,0.00
2013-2-19,67.5,67.5,67.5,67.2,67.2,67.2,99,99,99,30.04,29.54,0,0,1,0.00
2013-2-20,67.5,67.5,67.5,67.2,67.2,67.2,99,99,99,29.65,29.51,0,0,1,0.00
2013-2-21,67.5,67.5,67.5,67.2,67.2,67.2,99,99,99,31.99,29.64,0,0,1,0.00
2013-2-22,67.5,67.5,67.5,67.2,67.2,67.2,99,99,99,30.32,30.19,0,0,1,0.00
2013-2-23,70.2,66.7,42.6,69.9,66.4,42.4,99,99,99,29.96,29.73,1,0,2,0.00
2013-2-24,67.5,67.5,67.5,67.2,67.2,67.2,99,99,99,29.73,29.58,0,0,1,0.00
2013-2-25,67.5,67.5,67.5,67.2,67.2,67.2,99,99,99,30.02,29.73,0,0,1,0.00
2013-2-26,67.5,67.5,67.5,67.2,67.2,67.2,99,99,99,30.11,29.95,0,0,1,0.00
2013-2-27,67.5,67.5,67.5,67.2,67.2,67.2,99,99,99,29.95,29.46,0,0,1,0.00
2013-2-28,67.5,67.5,67.5,67.2,67.2,67.2,99,99,99,29.47,29.40,0,0,1,0.00
2013-3-1,67.5,67.5,67.5,67.2,67.2,67.2,99,99,99,29.55,29.40,0,0,1,0.00
2013-3-2,67.5,67.5,67.5,67.2,67.2,67.2,99,99,99,29.55,29.50,0,0,1,0.00
2013-3-3,67.5,67.5,67.5,67.2,67.2,67.2,99,99,99,29.51,29.44,0,0,1,0.00
2013-3-4,67.5,67.5,67.5,67.2,67.2,67.2,99,99,99,29.65,29.45,0,0,1,0.00
2013-3-5,67.5,67.5,67.5,67.2,67.2,67.2,99,99,99,29.90,29.65,0,0,1,0.00
2013-3-6,67.5,67.5,67.5,67.2,67.2,67.2,99,99,99,30.00,29.89,0,0,1,0.00
2013-3-7,67.5,67.5,67.5,67.2,67.2,67.2,99,99,99,29.99,29.91,0,0,1,0.00
2013-3-8,67.5,67.5,67.5,67.2,67.2,67.2,99,99,99,30.09,29.90,0,0,1,0.00
2013-3-9,67.5,67.5,67.5,67.2,67.2,67.2,99,99,99,30.14,30.05,0,0,1,0.00
2013-3-10,67.5,67.5,67.5,67.2,67.2,67.2,99,99,99,30.14,29.99,0,0,1,0.00
2013-3-11,67.5,24.5,0.0,67.2,67.2,67.2,99,36,99,30.03,29.85,0,0,1,0.00
2013-3-12,0.0,0.0,0.0,67.2,67.2,67.2,0,0,100,29.85,29.55,0,0,0,0.00
2013-3-13,0.0,0.0,0.0,67.2,67.2,67.2,0,0,100,29.64,29.55,0,0,0,0.00
2013-3-14,0.0,0.0,0.0,67.2,67.2,67.2,0,0,100,29.64,29.51,0,0,0,0.00
2013-3-15,0.0,0.0,0.0,67.2,67.2,67.2,0,0,100,29.64,29.38,0,0,0,0.00
2013-3-16,0.0,0.0,0.0,67.2,67.2,67.2,0,0,100,29.68,29.48,0,0,0,0.00
2013-3-17,0.0,0.0,0.0,67.2,67.2,67.2,0,0,100,30.08,29.67,0,0,0,0.00
2013-3-18,0.0,0.0,0.0,67.2,67.2,67.2,0,0,100,30.17,29.92,0,0,0,0.00
2013-3-19,0.0,0.0,0.0,67.2,67.2,67.2,0,0,100,29.93,29.52,0,0,0,0.00
2013-3-20,0.0,0.0,0.0,67.2,67.2,67.2,0,0,100,29.52,29.44,0,0,0,0.00
2013-3-21,0.0,0.0,0.0,67.2,67.2,67.2,0,0,100,29.52,29.42,0,0,0,0.00
2013-3-22,0.0,0.0,0.0,67.2,67.2,67.2,0,0,100,29.52,29.43,0,0,0,0.00
2013-3-23,0.0,0.0,0.0,67.2,67.2,67.2,0,0,100,29.58,29.42,0,0,0,0.00
2013-3-24,0.0,0.0,0.0,67.2,67.2,67.2,0,0,100,29.66,29.57,0,0,0,0.00
2013-3-25,0.0,0.0,0.0,67.2,67.2,67.2,0,0,100,29.63,29.41,0,0,0,0.00
2013-3-26,0.0,0.0,0.0,67.2,67.2,67.2,0,0,100,29.62,29.44,0,0,0,0.00
2013-3-27,0.0,0.0,0.0,67.2,67.2,67.2,0,0,100,29.74,29.59,0,0,0,0.00
2013-3-28,0.0,0.0,0.0,67.2,67.2,67.2,0,0,100,29.87,29.73,0,0,0,0.00
2013-3-29,0.0,0.0,0.0,67.2,67.2,67.2,0,0,100,29.89,29.82,0,0,0,0.00
2013-3-30,0.0,0.0,0.0,67.2,67.2,67.2,0,0,100,29.92,29.86,0,0,0,0.00
2013-3-31,0.0,0.0,0.0,67.2,67.2,67.2,0,0,100,29.91,29.59,0,0,0,0.00
2013-4-1,0.0,0.0,0.0,67.2,67.2,67.2,0,0,100,29.59,29.36,0,0,0,0.00
2013-4-2,0.0,0.0,0.0,67.2,67.2,67.2,0,0,100,29.63,29.53,0,0,0,0.00
2013-4-3,0.0,0.0,0.0,67.2,67.2,67.2,0,0,100,29.93,29.62,0,0,0,0.00
2013-4-4,70.2,15.7,0.0,69.9,48.3,-8.6,99,13,10,30.03,29.82,5,0,12,0.00
2013-4-5,47.8,35.8,25.3,24.0,11.4,-7.3,65,38,12,29.82,29.67,11,3,19,0.00
2013-4-6,36.0,26.4,17.1,9.9,-7.0,-20.3,67,27,10,30.17,29.80,12,4,24,0.00
2013-4-7,51.6,38.1,26.6,27.1,2.3,-16.4,57,24,10,30.15,29.78,13,4,24,0.00
2013-4-8,51.6,41.8,35.4,30.2,22.8,12.7,67,49,24,30.04,29.80,8,2,14,0.00
2013-4-9,43.7,40.2,35.2,41.4,34.6,18.8,94,81,37,29.96,29.77,9,2,17,0.24
2013-4-10,45.0,39.4,35.8,41.7,36.8,33.1,98,91,81,29.92,29.83,4,1,7,0.14
2013-4-11,38.7,34.2,28.6,34.4,16.7,3.4,94,53,27,30.07,29.82,9,2,17,0.01
2013-4-12,30.2,28.4,26.4,28.0,21.0,8.7,92,76,41,30.08,29.74,11,3,21,0.00
2013-4-13,49.3,35.9,29.5,36.1,29.8,26.7,94,80,44,29.81,29.69,6,0,9,0.17
2013-4-14,43.2,35.3,29.3,35.5,29.2,23.5,94,79,57,30.10,29.78,8,1,13,0.05
2013-4-15,53.1,40.6,24.8,31.6,22.7,14.6,88,54,22,30.24,30.10,9,2,15,0.00
2013-4-16,52.2,46.3,39.0,51.4,36.5,25.6,98,70,43,30.20,29.88,11,3,19,0.24
2013-4-17,52.2,43.0,32.2,41.5,25.3,16.0,84,52,26,30.27,29.96,99,3,99,0.00
2013-4-18,55.9,43.1,30.0,28.4,20.5,12.4,65,42,29,30.28,29.93,12,4,68,0.02
2013-4-19,70.7,58.2,48.0,58.7,48.6,26.6,94,72,41,29.93,29.46,14,5,22,0.35
2013-4-20,49.6,41.2,30.2,46.4,27.1,12.6,93,62,26,30.12,29.57,11,2,19,0.17
2013-4-21,43.0,32.7,23.5,18.7,9.4,-3.0,72,41,15,30.56,30.11,8,3,17,0.00
2013-4-22,52.2,37.8,24.6,17.0,3.0,-9.5,56,29,10,30.60,30.45,16,4,21,0.00
2013-4-23,43.9,36.3,23.5,32.0,23.9,14.7,82,61,37,30.46,30.06,11,3,17,0.00
2013-4-24,73.0,53.0,29.8,39.9,30.0,12.2,91,52,10,30.06,29.62,11,2,16,0.00
2013-4-25,60.1,45.0,31.8,47.6,23.5,1.6,81,46,13,30.21,29.62,9,3,21,0.04
2013-4-26,55.0,42.1,29.5,29.0,20.2,8.6,68,44,17,30.34,30.19,11,2,14,0.00
2013-4-27,60.8,45.5,30.6,36.9,21.8,1.7,86,47,10,30.34,30.21,7,2,12,0.00
2013-4-28,67.8,53.1,33.8,27.2,16.2,4.6,61,29,10,30.24,30.08,9,3,15,0.00
2013-4-29,68.7,55.4,43.0,31.8,26.0,14.1,58,35,13,30.15,30.07,12,2,21,0.00
2013-4-30,69.6,59.0,46.9,40.7,33.3,22.8,70,41,19,30.24,30.14,11,1,14,0.00
2013-5-1,75.0,60.9,41.4,27.9,17.4,4.8,49,21,10,30.36,30.23,9,2,15,0.00
2013-5-2,79.3,62.0,44.6,38.0,25.0,10.1,52,28,10,30.36,30.26,8,2,14,0.00
2013-5-3,68.0,54.3,34.7,33.8,25.9,18.1,68,36,17,30.41,30.26,13,2,19,0.00
2013-5-4,72.9,59.3,41.7,42.6,24.4,9.0,79,35,10,30.28,30.12,11,2,17,0.00
2013-5-5,74.1,59.3,39.2,30.7,20.3,8.2,64,28,10,30.18,30.07,11,2,14,0.00
2013-5-6,76.5,61.1,40.3,33.7,18.8,3.9,67,26,10,30.13,30.01,9,2,14,0.00
2013-5-7,81.0,65.1,44.8,34.6,22.0,11.9,53,23,10,30.07,29.99,7,1,14,0.00
2013-5-8,76.8,63.1,50.7,55.1,46.8,28.2,88,59,22,30.12,29.99,14,4,22,0.01
2013-5-9,71.1,60.6,54.5,56.5,52.8,41.7,95,78,36,29.99,29.83,8,2,16,0.30
2013-5-10,71.1,59.9,51.6,57.6,53.2,47.5,97,80,44,29.92,29.79,6,1,10,0.01
2013-5-11,63.1,58.5,50.0,61.2,55.7,46.6,99,90,83,29.80,29.59,7,2,12,0.12
2013-5-12,62.2,50.2,38.5,47.8,37.8,22.2,93,65,32,29.67,29.53,5,1,12,0.00
2013-5-13,47.7,40.2,35.1,29.2,23.3,19.0,74,51,32,29.92,29.64,8,2,17,0.00
2013-5-14,53.4,41.3,29.1,31.1,19.4,0.3,89,49,11,29.95,29.86,8,2,18,0.00
2013-5-15,62.6,45.0,29.3,46.8,27.5,6.1,95,58,11,29.91,29.54,12,4,23,0.08
2013-5-16,73.2,55.4,41.9,49.7,36.3,11.5,99,58,10,29.77,29.52,8,2,21,0.00
2013-5-17,61.2,49.8,41.7,40.4,34.0,26.0,87,58,28,30.12,29.77,8,2,16,0.00
2013-5-18,68.0,54.4,37.2,41.9,30.4,12.6,87,47,12,30.19,30.11,6,1,9,0.00
2013-5-19,65.5,54.9,45.9,50.9,43.7,35.4,97,68,38,30.20,30.04,8,2,14,0.28
2013-5-20,65.5,56.4,51.3,61.0,55.1,50.0,99,95,79,30.04,29.91,8,1,11,0.05
2013-5-21,70.0,59.6,50.5,66.2,56.9,50.1,99,91,69,29.95,29.80,14,2,24,0.52
2013-5-22,68.7,57.5,48.7,65.5,56.1,48.1,99,96,79,29.86,29.76,10,3,16,0.43
2013-5-23,76.1,63.4,55.9,67.8,60.7,55.5,99,92,57,29.78,29.70,8,3,17,0.33
2013-5-24,60.6,48.7,41.7,60.2,48.4,41.3,99,99,97,29.86,29.62,9,2,16,0.64
2013-5-25,41.5,37.6,32.5,41.3,37.1,32.3,99,98,95,29.85,29.70,11,3,30,0.69
2013-5-26,46.9,38.5,32.7,40.4,36.1,31.5,99,91,73,29.94,29.67,11,2,18,0.20
2013-5-27,62.4,47.0,31.5,42.0,31.2,19.5,99,63,21,31.52,29.91,10,2,19,0.01
2013-5-28,69.4,55.1,36.3,41.1,30.7,10.4,87,48,12,30.12,30.03,8,2,14,0.00
2013-5-29,58.1,54.1,48.7,57.3,50.3,36.4,99,88,53,30.06,29.88,8,3,15,0.19
2013-5-30,81.9,69.0,55.8,65.0,59.5,55.5,99,76,42,30.03,29.91,8,1,15,0.00
2013-5-31,87.8,73.6,59.2,64.8,59.8,56.3,95,66,36,30.03,29.89,7,1,11,0.00
2013-6-1,87.8,75.0,62.6,65.4,61.0,51.2,94,65,29,29.93,29.80,9,1,17,0.00
2013-6-2,86.2,72.0,63.0,70.7,65.1,60.6,97,81,46,29.84,29.65,8,2,23,0.12
2013-6-4,51.3,50.1,47.7,41.7,40.8,39.1,72,70,68,30.01,29.97,3,1,10,0.00
2013-6-5,68.0,54.0,38.8,41.0,33.3,17.2,89,52,16,30.10,30.01,6,1,11,0.00
2013-6-6,66.6,55.3,46.8,50.4,42.5,36.6,90,64,36,30.10,30.00,8,2,13,0.02
2013-6-7,52.9,50.1,48.6,50.3,49.1,19.4,99,96,79,30.01,29.81,101,3,101,0.59
2013-6-8,61.7,55.0,49.6,58.3,53.6,49.4,99,95,87,29.94,29.67,4,1,9,0.28
2013-6-9,72.7,60.5,51.1,58.8,53.0,46.8,99,79,40,30.12,29.93,6,1,13,0.00
2013-6-10,72.0,59.1,47.3,57.5,49.1,33.3,98,74,25,30.13,29.92,6,2,11,0.06
2013-6-11,57.0,53.7,20.7,56.8,53.4,10.4,99,99,95,29.92,29.52,99,2,99,1.24
2013-6-12,62.1,54.8,50.7,54.4,51.8,-9.8,99,90,70,29.78,29.53,97,2,99,0.07
2013-6-13,65.7,56.3,45.3,55.4,48.8,8.4,99,79,45,29.76,29.64,97,1,97,0.01
2013-6-14,74.1,61.3,50.7,56.3,49.0,33.4,99,69,25,29.77,29.62,6,1,14,0.00
2013-6-15,70.7,58.0,42.6,47.3,38.9,26.3,88,55,20,29.87,29.77,147,1,147,0.00
2013-6-16,69.8,58.7,49.6,57.7,50.1,41.5,98,75,45,29.85,29.64,6,1,12,0.25
2013-6-17,73.9,60.4,50.9,62.3,55.7,50.4,99,86,53,29.86,29.69,4,0,8,0.12
2013-6-18,67.1,55.9,47.1,51.3,46.2,38.5,97,72,37,29.91,29.83,5,1,8,0.00
2013-6-19,68.2,55.2,43.7,43.4,38.3,27.3,88,57,26,30.10,29.90,7,2,14,0.00
2013-6-20,73.2,58.1,41.0,48.6,39.5,27.0,93,56,20,30.17,30.09,5,2,11,0.09
2013-6-21,78.8,64.1,48.6,50.8,45.4,39.7,81,55,27,30.18,30.12,4,1,10,0.00
2013-6-22,79.3,65.3,57.2,63.9,57.0,48.6,99,76,48,30.16,30.06,5,1,8,0.35
2013-6-23,82.8,69.6,62.1,71.5,66.5,61.8,99,91,64,30.07,29.94,10,1,16,0.59
2013-6-24,87.1,71.8,63.5,70.8,66.3,62.3,99,84,48,29.95,29.87,5,1,11,0.22
2013-6-25,86.2,69.8,60.8,72.1,65.0,60.5,99,87,44,29.90,29.73,7,0,12,1.02
2013-6-26,72.9,66.4,63.0,69.8,65.6,62.7,99,97,84,29.81,29.72,3,0,7,0.28
2013-6-27,78.8,69.4,63.1,70.0,65.6,61.1,99,89,60,29.79,29.72,7,2,11,0.00
2013-6-28,73.4,64.9,58.5,67.6,63.4,58.2,99,95,78,29.72,29.43,13,4,22,0.76
2013-6-29,78.1,68.1,62.2,68.8,64.3,60.6,99,89,57,29.66,29.47,8,1,12,0.08
2013-6-30,81.5,70.8,61.2,66.2,61.8,56.1,99,76,43,29.91,29.65,4,1,10,0.07
2013-7-1,73.0,67.2,61.3,69.6,65.4,58.7,99,94,84,30.04,29.90,4,0,9,0.89
2013-7-2,70.5,64.8,60.4,70.3,64.5,60.2,99,99,97,30.11,30.01,8,2,11,1.02
2013-7-3,84.4,70.1,61.9,76.6,67.8,61.4,99,93,65,30.15,30.07,4,1,8,0.11
2013-7-4,85.6,72.9,65.3,75.4,69.3,65.0,99,90,59,30.16,30.07,4,0,11,0.70
2013-7-5,86.5,73.7,65.1,71.5,67.9,-33.6,99,84,48,30.12,30.02,6,0,11,0.06
2013-7-6,83.3,72.4,65.5,74.1,65.9,10.8,99,83,10,30.05,29.98,4,0,11,0.04
2013-7-7,82.6,71.6,63.7,65.2,62.1,58.3,91,73,47,30.01,29.91,5,0,8,0.00
2013-7-8,77.0,69.9,66.2,71.5,67.7,64.8,99,93,73,30.03,29.92,4,0,8,1.57
2013-7-9,79.3,70.3,66.2,71.7,67.0,64.8,99,90,64,30.06,29.99,7,2,12,0.00
2013-7-10,71.4,67.8,65.7,69.4,67.4,65.4,99,98,94,30.01,29.74,9,3,15,0.21
2013-7-11,79.2,69.1,58.3,69.9,61.8,52.8,99,80,41,29.99,29.73,7,1,11,0.07
2013-7-12,79.7,67.0,54.1,55.8,51.7,42.0,90,62,29,30.17,29.99,5,1,8,0.00
2013-7-13,77.9,68.0,57.6,62.2,57.9,51.9,94,72,43,30.27,30.17,7,2,11,0.00
2013-7-14,83.5,72.6,63.9,69.4,65.3,61.2,97,80,49,30.28,30.20,4,0,7,0.00
2013-7-15,87.8,75.1,64.2,72.4,62.5,50.1,99,70,30,30.21,30.13,6,1,11,0.00
2013-7-16,85.5,74.7,64.2,67.4,62.6,56.6,94,69,40,30.19,30.15,5,1,13,0.00
2013-7-17,90.7,76.4,63.9,69.1,64.1,55.0,98,70,32,30.18,29.95,11,1,21,1.56
2013-7-18,85.6,74.0,65.7,72.8,68.3,64.8,99,84,52,30.03,29.93,4,0,8,0.01
2013-7-19,88.9,76.6,66.9,74.9,68.0,62.4,99,78,45,29.93,29.67,9,1,21,0.06
2013-7-20,79.9,71.3,62.6,70.8,62.7,50.8,98,76,47,29.81,29.64,8,1,15,0.12
2013-7-21,75.4,64.7,55.4,58.0,52.0,-27.3,93,66,39,30.00,29.80,6,1,11,0.00
2013-7-22,77.4,64.2,51.3,64.5,56.5,47.0,93,77,49,30.00,29.86,8,2,12,0.00
2013-7-23,72.7,65.9,62.4,69.0,64.5,5.6,99,96,10,29.86,29.55,5,1,29,0.81
2013-7-24,64.6,59.5,51.4,64.3,55.8,6.3,99,88,66,29.98,29.56,7,1,14,0.24
2013-7-25,69.8,58.0,43.5,52.7,46.5,41.2,94,68,42,30.08,29.97,6,1,8,0.00
2013-7-26,71.2,62.1,53.6,57.4,53.7,50.5,92,75,54,30.06,29.95,5,1,11,0.00
2013-7-27,79.7,66.2,52.5,60.5,51.7,34.8,98,66,22,30.00,29.94,5,1,7,0.00
2013-7-28,75.7,67.3,61.0,65.0,60.9,56.0,98,81,56,29.97,29.91,10,3,19,0.05
2013-7-29,79.5,68.9,61.5,66.0,57.8,40.6,99,73,26,30.03,29.92,7,1,14,0.13
2013-7-30,72.9,63.6,55.4,57.0,51.8,41.6,91,68,37,30.07,30.01,4,1,8,0.00
2013-7-31,77.9,64.9,51.3,59.0,49.1,31.8,96,63,19,30.09,29.99,5,1,8,0.00
2013-8-1,77.0,64.8,56.1,62.3,57.1,50.9,99,78,43,29.99,29.79,10,3,17,0.08
2013-8-2,77.2,66.2,56.8,64.7,55.4,39.1,99,74,26,29.81,29.75,6,1,14,0.06
2013-8-3,71.2,61.9,54.9,59.7,54.5,48.0,99,79,49,29.80,29.73,5,1,12,0.08
2013-8-4,68.5,59.4,53.1,58.1,52.4,46.9,98,79,51,29.85,29.75,7,1,14,0.07
2013-8-5,68.5,57.3,48.0,50.6,39.4,7.8,92,59,10,29.99,29.85,8,2,16,0.04
2013-8-6,72.5,59.7,45.9,52.2,44.5,33.5,93,62,27,30.08,27.03,8,1,13,0.00
2013-8-7,77.2,65.0,54.7,57.3,51.2,45.3,84,63,37,30.10,29.98,10,3,16,0.00
2013-8-8,78.6,69.1,62.4,70.4,63.4,53.2,96,83,60,29.99,29.93,7,2,14,0.04
2013-8-9,74.8,68.1,-5.6,70.8,67.5,-5.7,99,98,10,29.95,29.75,100,2,100,0.87
2013-8-10,72.5,63.7,50.9,65.4,49.3,10.0,99,66,12,29.97,29.76,8,2,15,0.01
2013-8-11,73.6,60.8,49.1,52.9,46.9,33.7,93,65,24,30.02,29.94,4,1,9,0.00
2013-8-12,76.6,63.8,52.0,55.2,49.7,33.2,95,65,22,29.97,29.20,175,1,175,0.00
2013-8-13,69.1,61.8,56.8,63.0,58.7,53.0,99,90,81,29.87,29.64,8,2,11,0.14
2013-8-14,68.4,58.1,49.6,60.5,52.5,45.3,99,83,46,29.88,29.63,7,1,14,0.06
2013-8-15,72.3,57.8,45.9,51.5,45.3,32.8,98,68,26,30.04,29.88,6,1,13,0.01
2013-8-16,75.9,61.1,47.8,55.4,47.2,33.2,93,66,23,30.17,30.02,4,1,8,0.06
2013-8-17,72.9,60.6,49.6,60.4,49.2,37.7,99,71,31,30.24,30.16,7,1,10,0.01
2013-8-18,75.9,61.7,50.7,56.8,49.4,30.1,92,69,21,30.23,30.03,3,1,8,0.00
2013-8-19,79.9,65.5,52.3,59.0,53.7,43.1,97,70,30,30.04,29.94,5,1,12,0.00
2013-8-20,81.1,67.5,55.9,63.0,55.0,41.6,97,69,25,30.06,29.97,4,1,8,0.00
2013-8-21,84.4,70.3,58.5,63.9,57.5,45.3,97,69,26,30.11,29.99,4,1,9,0.00
2013-8-22,85.1,70.2,60.3,63.3,58.1,46.3,95,71,28,30.00,29.82,5,1,11,0.05
2013-8-23,72.3,62.4,52.0,62.1,49.9,34.6,98,69,26,30.15,29.85,7,1,13,0.02
2013-8-24,75.7,58.6,43.3,53.4,37.0,11.9,94,57,10,30.31,30.15,5,2,10,0.00
2013-8-25,75.7,60.8,0.0,55.9,44.7,19.0,94,61,16,30.32,30.12,4,1,8,0.01
2013-8-26,72.1,64.8,59.2,65.1,61.4,1.9,97,89,74,30.13,29.87,3,0,7,0.08
2013-8-27,80.1,70.8,63.5,68.5,64.5,58.8,99,82,51,29.92,29.86,6,1,8,0.00
2013-8-28,82.8,69.7,-12.3,69.0,62.3,-19.1,99,80,42,29.98,29.87,8,1,11,0.01
2013-8-29,75.4,65.8,57.9,64.0,60.9,56.5,99,86,57,30.06,29.96,6,1,11,0.00
2013-8-30,82.6,69.7,61.5,67.1,62.1,-23.8,99,80,39,30.00,29.78,6,0,10,0.14
2013-8-31,75.6,68.2,65.1,69.0,66.5,62.3,99,94,66,29.81,29.77,97,0,97,0.18
2013-9-1,80.6,69.7,-12.8,70.6,64.1,-24.9,99,84,47,29.88,29.78,6,1,8,0.11
2013-9-2,113.2,68.6,62.2,70.6,67.1,-5.9,99,95,78,29.86,29.70,8,3,100,0.48
2013-9-3,72.7,63.6,58.5,66.3,60.0,54.6,99,89,56,29.78,29.69,97,1,97,0.02
2013-9-4,112.3,61.6,54.7,69.9,54.4,8.2,99,80,31,29.89,29.78,5,1,101,0.46
2013-9-5,72.7,53.1,38.7,57.9,38.1,-29.8,99,64,15,30.10,29.85,97,2,97,0.24
2013-9-6,65.3,52.2,6.1,56.9,27.3,-25.2,96,49,10,30.17,30.00,147,2,147,0.09
2013-9-7,72.3,61.8,26.4,51.6,32.8,-22.7,79,37,10,30.00,29.79,49,1,49,0.09
2013-9-8,58.6,53.1,40.1,52.0,40.4,26.8,96,63,36,30.02,29.71,9,2,103,0.18
2013-9-9,71.8,39.4,27.1,40.7,33.9,-14.1,92,83,10,30.12,29.32,5,1,8,0.00
2013-9-10,68.0,57.9,47.1,65.9,56.0,40.6,99,94,64,29.89,29.81,6,2,10,0.19
2013-9-11,90.1,73.7,64.2,76.8,66.3,55.7,99,82,33,29.87,29.76,8,1,21,0.24
2013-9-12,77.4,67.4,63.3,70.4,65.8,63.1,99,95,75,29.81,29.50,8,1,12,0.51
2013-9-13,63.7,56.6,50.5,63.4,56.3,50.3,99,99,99,29.63,29.45,6,2,13,1.15
2013-9-14,57.2,49.9,42.1,52.0,47.8,41.3,99,93,73,29.86,29.61,7,2,14,0.09
2013-9-15,68.7,52.4,38.5,51.8,43.6,34.1,99,77,31,29.91,29.81,4,1,9,0.00
2013-9-16,54.5,47.5,34.7,52.5,41.1,25.4,99,80,42,30.07,29.80,6,1,13,0.08
2013-9-17,62.8,45.3,31.6,39.3,30.0,9.2,96,64,14,30.20,30.06,6,2,11,0.00
2013-9-18,70.9,52.5,37.9,46.9,34.2,8.9,98,63,10,30.09,29.93,4,1,8,0.00
2013-9-19,76.5,57.2,43.2,53.8,37.7,11.9,99,63,10,29.94,29.85,4,1,7,0.00
2013-9-20,76.1,61.6,47.8,56.1,44.8,21.5,97,62,14,29.90,29.77,8,2,14,0.00
2013-9-21,70.5,60.7,53.6,61.6,51.8,19.1,99,78,17,29.77,29.45,12,5,21,0.01
2013-9-22,63.5,53.7,43.2,61.1,50.5,39.1,99,89,64,29.65,29.38,7,2,14,0.58
2013-9-23,47.1,43.1,39.7,39.5,36.2,33.8,88,77,62,29.80,29.63,7,2,15,0.01
2013-9-24,59.0,47.3,41.4,42.3,34.9,21.8,81,65,25,29.78,29.67,8,2,16,0.00
2013-9-25,59.0,51.0,46.6,44.9,41.7,36.5,87,72,43,29.80,29.69,6,1,11,0.00
2013-9-26,62.6,50.9,40.8,46.2,41.6,32.8,93,73,34,29.95,29.80,7,1,13,0.00
2013-9-27,69.6,54.6,47.5,48.0,43.7,26.5,91,71,22,30.08,29.95,6,1,8,0.00
2013-9-28,73.8,55.6,43.3,55.3,41.0,13.3,99,67,11,30.16,30.05,7,2,10,0.00
2013-9-29,72.9,57.4,45.0,52.9,40.6,19.9,98,62,16,30.05,29.88,8,1,12,0.00
2013-9-30,71.1,55.2,42.3,49.9,39.9,18.8,97,65,14,29.90,29.78,9,2,12,0.00
2013-10-1,75.4,57.4,43.5,54.6,44.1,24.2,98,69,16,29.80,29.70,5,2,11,0.00
2013-10-2,74.5,60.8,49.3,58.4,47.9,31.1,99,67,31,29.77,29.65,5,1,13,0.00
2013-10-3,73.0,57.6,44.4,47.3,33.0,10.5,85,48,10,29.90,29.77,4,1,9,0.00
2013-10-4,65.3,54.5,44.4,52.9,42.1,32.5,94,66,31,29.91,29.84,4,1,7,0.00
2013-10-5,62.4,54.4,46.0,45.8,39.0,28.2,83,58,29,29.94,29.87,4,1,8,0.00
2013-10-6,52.9,48.3,45.1,47.2,35.4,22.4,99,65,34,29.96,29.86,9,3,15,0.25
2013-10-7,63.1,54.2,47.5,62.9,53.9,46.9,99,99,93,29.86,29.44,13,3,31,0.51
2013-10-8,59.0,47.7,36.1,47.9,27.9,-0.1,93,54,10,30.14,29.67,8,2,17,0.00
2013-10-9,65.1,46.1,32.7,40.1,22.9,1.6,89,51,10,30.21,30.11,6,2,11,0.00
2013-10-10,68.2,49.7,36.0,41.5,28.7,7.0,87,53,10,30.11,29.97,4,1,6,0.00
2013-10-11,74.5,54.7,41.9,39.7,24.7,6.0,70,39,10,29.97,29.92,4,2,6,0.00
2013-10-12,70.9,55.2,45.0,46.5,36.5,24.9,86,54,18,30.14,29.96,7,2,12,0.00
2013-10-13,62.8,52.2,43.7,46.3,38.9,27.2,89,65,26,30.18,30.10,8,2,14,0.00
2013-10-14,53.1,49.4,45.0,52.4,48.5,42.3,99,97,89,30.11,30.00,6,1,11,0.12
2013-10-15,63.1,54.2,45.1,56.2,49.2,44.2,99,85,51,30.04,29.92,8,1,15,0.01
2013-10-16,65.8,54.3,50.0,51.9,44.6,37.3,95,71,40,29.92,29.62,8,3,17,0.01
2013-10-17,66.2,53.9,46.4,56.6,44.5,28.2,99,75,24,29.63,29.48,8,1,13,0.11
2013-10-18,59.4,51.1,44.1,52.2,40.1,22.5,99,70,35,29.64,29.39,7,2,12,0.40
2013-10-19,63.9,49.3,36.7,38.3,27.8,5.0,85,49,10,29.68,29.46,8,2,14,0.00
2013-10-20,54.3,47.0,41.7,44.2,24.8,-0.9,90,49,12,29.73,29.41,8,3,14,0.12
2013-10-21,62.4,48.2,32.9,35.6,22.8,6.7,84,43,11,29.81,29.66,7,2,12,0.00
2013-10-22,53.6,45.2,30.7,42.3,31.9,19.3,87,61,33,29.67,29.44,8,2,14,0.13
2013-10-23,50.9,37.9,29.3,30.8,18.7,0.3,82,51,14,29.52,29.36,5,1,116,0.01
2013-10-24,43.3,35.5,28.6,30.4,21.4,4.7,86,60,20,29.58,29.39,7,1,17,0.06
2013-10-25,37.2,33.9,31.6,30.0,24.2,16.2,89,69,44,29.82,29.57,7,1,16,0.11
2013-10-26,41.2,34.5,26.8,30.2,21.9,5.3,80,63,23,29.82,29.54,9,1,18,0.02
2013-10-27,43.9,38.0,34.2,29.5,21.9,10.6,69,53,29,29.72,29.47,8,2,17,0.01
2013-10-28,44.1,34.4,25.2,30.8,17.6,2.1,72,52,24,30.06,29.71,10,2,17,0.01
2013-10-29,42.1,28.1,17.8,18.7,5.9,-12.1,72,43,12,30.14,30.05,6,2,9,0.00
2013-10-30,43.2,32.6,24.3,25.2,13.8,-3.7,73,47,23,30.06,29.93,6,1,9,0.00
2013-10-31,52.5,41.7,31.1,52.3,37.8,23.5,99,86,69,29.97,29.47,9,3,16,0.31
2013-11-1,63.7,56.3,46.6,59.5,44.7,19.0,99,71,21,29.47,29.03,10,3,28,0.28
2013-11-2,51.4,44.1,32.7,38.6,33.5,26.9,84,67,42,29.62,29.40,10,1,19,0.02
2013-11-3,37.8,27.8,18.3,27.0,3.8,-18.2,82,41,10,30.18,29.62,8,3,17,0.00
2013-11-4,38.8,24.8,14.4,8.2,-2.8,-17.9,61,35,10,30.37,30.17,5,2,11,0.00
2013-11-5,43.2,33.6,23.4,15.3,0.5,-15.3,46,26,10,30.38,30.19,9,2,14,0.00
2013-11-6,51.8,43.0,32.5,34.5,25.8,15.2,72,52,30,30.19,29.68,8,3,14,0.00
2013-11-7,52.0,42.2,30.9,50.8,36.0,19.0,99,79,60,29.68,29.51,8,2,15,0.39
2013-11-8,38.3,30.6,28.0,23.5,17.6,9.1,77,58,42,29.79,29.56,8,2,18,0.00
2013-11-9,34.9,31.1,28.0,21.3,8.1,2.5,68,38,25,29.89,29.71,8,2,17,0.01
2013-11-10,41.0,34.2,29.8,35.5,30.6,21.6,93,87,70,29.71,29.46,7,2,13,0.15
2013-11-11,32.2,31.1,29.8,29.3,27.6,25.6,89,87,84,29.70,29.59,0,0,0,0.00
2013-11-12,71.8,41.5,18.5,66.8,34.5,5.9,99,76,55,29.95,29.36,10,4,20,0.76
2013-11-13,30.0,20.4,13.5,6.5,-1.4,-21.7,62,41,10,30.01,29.78,8,2,14,0.00
2013-11-14,41.2,29.7,19.8,18.8,11.1,2.6,68,47,21,29.83,29.75,8,2,15,0.02
2013-11-15,48.9,36.8,27.9,16.5,-2.0,-14.3,60,22,10,29.98,29.83,4,1,8,0.01
2013-11-16,57.6,43.2,35.2,4.8,-4.3,-14.1,25,13,10,30.08,29.95,4,1,8,0.00
2013-11-17,46.8,42.1,37.9,46.5,27.7,2.7,99,64,19,30.07,29.59,10,4,17,0.12
2013-11-18,53.2,47.2,35.1,53.0,32.8,10.3,99,63,22,29.59,29.25,14,4,24,0.22
2013-11-19,34.9,26.9,22.3,19.3,7.1,-1.4,65,43,29,30.06,29.43,12,4,28,0.00
2013-11-20,33.4,23.3,17.1,9.6,0.0,-20.1,60,40,10,30.37,30.06,8,2,14,0.00
2013-11-21,38.5,28.2,16.3,6.1,-6.8,-19.2,60,26,10,30.37,30.10,6,2,9,0.00
2013-11-22,37.8,31.8,27.9,37.1,22.1,2.0,98,71,29,30.10,29.57,5,1,8,0.05
2013-11-23,37.4,26.5,14.4,36.9,14.7,-1.3,98,63,28,29.71,29.48,10,0,23,0.02
2013-11-24,14.2,11.0,6.3,6.0,-5.8,-20.2,69,48,23,29.89,29.54,5,0,24,0.00
2013-11-25,21.7,13.2,-0.6,-4.3,-18.6,-30.7,46,25,10,30.06,29.89,5,1,10,0.00
2013-11-26,30.6,26.0,21.7,24.6,11.8,-4.5,88,57,30,30.00,29.79,8,2,15,0.00
2013-11-27,43.3,33.0,26.2,43.1,32.2,23.3,99,97,88,29.79,29.14,10,1,18,0.34
2013-11-28,26.1,15.9,6.3,23.3,2.3,-8.9,89,56,32,30.10,29.24,0,0,0,0.00
2013-11-29,21.4,8.8,0.9,3.9,-7.4,-13.8,65,49,21,30.44,30.10,0,0,0,0.00
2013-11-30,21.4,12.3,-0.6,8.1,-12.4,-28.6,63,38,10,30.46,30.06,0,0,0,0.00
2013-12-1,31.8,27.1,21.4,26.0,15.6,-6.4,89,63,28,30.07,29.82,0,0,0,0.00
2013-12-2,34.9,30.9,27.7,31.3,28.6,25.2,95,91,84,29.82,29.70,4,0,8,0.05
2013-12-3,36.7,30.9,26.8,35.2,29.1,20.1,98,93,71,29.76,29.69,5,0,8,0.02
2013-12-4,34.3,28.3,24.6,24.5,19.3,15.6,85,69,49,29.95,29.75,5,0,11,0.00
2013-12-5,41.5,34.8,26.2,41.3,29.7,17.5,99,82,61,29.94,29.66,12,4,21,0.01
2013-12-6,42.3,33.8,28.6,42.0,31.7,22.6,99,92,77,29.90,29.68,5,1,11,0.30
2013-12-7,28.6,22.9,16.5,22.6,1.6,-13.8,78,42,18,30.16,29.85,8,2,15,0.00
2013-12-8,22.6,17.8,13.5,-2.5,-9.9,-19.3,41,29,15,30.28,30.15,7,2,14,0.00
2013-12-9,31.8,23.2,17.8,28.9,13.8,-6.0,92,69,33,30.19,29.61,11,3,22,0.00
2013-12-10,30.7,23.7,14.9,28.2,7.9,-8.7,90,52,32,29.65,29.52,7,2,11,0.00
2013-12-11,20.5,15.6,5.9,6.5,-0.5,-8.7,62,49,32,29.85,29.65,5,2,14,0.00
2013-12-12,12.9,6.4,-2.4,-4.4,-14.9,-29.0,54,38,16,29.95,29.65,6,1,12,0.00
2013-12-13,14.2,6.0,-8.1,0.5,-12.1,-27.7,59,43,28,30.08,29.57,8,2,13,0.00
2013-12-14,4.6,-3.1,-13.7,-9.4,-28.6,-42.1,51,30,10,30.27,29.90,8,2,11,0.00
2013-12-15,18.7,14.8,4.6,9.8,4.8,-9.4,69,64,51,29.89,29.28,12,2,100,0.01
2013-12-16,15.1,4.8,-10.8,4.0,-13.5,-37.9,65,43,26,29.92,29.43,8,2,16,0.00
2013-12-17,10.4,-1.2,-15.2,-4.0,-21.9,-41.9,51,37,10,29.93,29.73,9,2,14,0.00
2013-12-18,29.1,16.1,6.1,11.2,1.2,-7.3,66,52,30,29.73,29.65,7,1,12,0.00
2013-12-19,30.9,25.7,19.6,17.9,12.6,6.2,71,58,43,29.85,29.66,6,1,13,0.00
2013-12-20,36.1,32.0,28.4,35.9,24.9,17.5,99,76,60,29.86,29.67,9,2,15,0.13
2013-12-21,48.2,39.9,33.8,47.8,39.7,33.4,99,99,99,29.71,29.61,5,1,11,0.34
2013-12-22,41.2,35.8,31.8,40.9,35.6,31.6,99,99,99,29.76,29.49,10,2,17,0.51
2013-12-23,37.0,33.0,25.5,36.8,32.8,25.3,99,99,99,29.90,29.75,6,1,11,0.08
2013-12-24,25.5,13.3,0.0,25.3,4.7,-17.7,99,69,41,29.97,29.83,0,0,0,0.00
2013-12-25,10.6,3.4,-5.3,-14.3,-20.5,-27.7,48,33,16,30.21,29.97,0,0,0,0.00
2013-12-26,22.6,17.0,10.6,13.0,0.4,-28.5,71,51,14,30.11,29.82,0,0,0,0.00
2013-12-27,28.4,21.9,15.8,14.2,7.5,-2.0,72,54,29,29.93,29.88,0,0,0,0.00
2013-12-28,33.4,26.3,14.2,23.5,14.5,1.8,74,61,51,29.88,29.73,4,0,9,0.00
2013-12-29,36.1,31.5,25.5,30.8,25.1,18.8,93,78,50,29.77,29.37,6,2,14,0.14
2013-12-30,33.1,15.5,-3.5,32.6,4.2,-25.2,98,63,33,29.91,29.36,0,0,0,0.00
2013-12-31,10.9,3.0,-3.1,-3.5,-19.4,-30.9,54,34,18,29.89,29.71,0,0,0,0.00
2014-1-1,15.3,5.7,-6.0,-6.3,-18.5,-36.4,50,32,16,30.09,29.81,0,0,0,0.00
2014-1-2,2.3,-4.0,-7.8,-22.4,-29.2,-36.7,31,27,20,30.08,29.65,0,0,0,0.00